Location: Hickory_CSC
(35.7330°N, 81.3330°W)
Time: 04:43:41
(UTC-04:00)

ISS - All Passes

Search period start: 25 October 2014 00:00
Search period end: 03 November 2014 23:00
Orbit: 412 x 416 km, 51.6° (Epoch: 25 October)

Date Brightness Start Highest point End Pass type
(mag) Time Alt. Az. Time Alt. Az. Time Alt. Az.
25 Oct - 12:20:21 10° SSW 12:23:24 35° SE 12:26:28 10° ENE daylight
25 Oct - 13:57:28 10° W 14:00:09 22° NNW 14:02:51 10° NNE daylight
25 Oct - 18:51:45 10° NNW 18:54:01 17° NNE 18:56:17 10° ENE daylight
25 Oct - 20:27:40 10° NW 20:30:57 57° SW 20:34:13 10° SE visible
26 Oct - 11:31:59 10° S 11:34:20 18° SE 11:36:42 10° E daylight
26 Oct - 13:07:43 10° WSW 13:10:49 36° NW 13:13:56 10° NNE daylight
26 Oct - 18:03:15 10° N 18:04:33 12° NNE 18:05:51 10° NE daylight
26 Oct - 19:38:26 10° NW 19:41:45 71° NE 19:45:04 10° SE visible
27 Oct - 12:18:13 10° SW 12:21:31 68° NW 12:24:50 10° NE daylight
27 Oct - 13:57:31 10° NW 13:58:44 12° NNW 13:59:57 10° N daylight
27 Oct - 18:49:19 10° NNW 18:52:27 37° NE 18:55:34 10° ESE daylight
27 Oct - 20:26:35 10° W 20:28:55 18° SW 20:31:14 10° S visible
28 Oct - 11:28:59 10° SW 11:32:15 59° SE 11:35:32 10° NE daylight
28 Oct - 13:06:58 10° WNW 13:09:11 16° NNW 13:11:24 10° NNE daylight
28 Oct - 18:00:19 10° NNW 18:03:02 23° NNE 18:05:44 10° E daylight
28 Oct - 19:36:42 10° WNW 19:39:45 34° SW 19:42:47 10° SSE visible
29 Oct - 10:40:06 10° SSW 10:43:01 29° SE 10:45:57 10° ENE daylight
29 Oct - 12:16:52 10° W 12:19:41 25° NNW 12:22:30 10° NNE daylight
29 Oct - 17:11:27 10° N 17:13:30 15° NNE 17:15:33 10° ENE daylight
29 Oct - 18:47:10 10° NW 18:50:30 70° SW 18:53:47 10° SE daylight
30 Oct - 09:51:47 10° SSE 09:53:48 15° SE 09:55:51 10° E daylight
30 Oct - 11:27:02 10° WSW 11:30:12 42° NW 11:33:24 10° NE daylight
30 Oct - 16:23:01 10° N 16:23:51 11° NNE 16:24:42 10° NE daylight
30 Oct - 17:57:49 10° NW 18:01:07 58° NE 18:04:24 10° ESE daylight
30 Oct - 19:36:25 10° WSW 19:37:23 11° SW 19:38:22 10° SW visible
31 Oct - 10:37:28 10° SW 10:40:46 82° NW 10:44:06 10° NE daylight
31 Oct - 12:16:21 10° NW 12:17:54 13° NNW 12:19:27 10° N daylight
31 Oct - 17:08:36 10° NNW 17:11:38 32° NE 17:14:39 10° E daylight
31 Oct - 18:45:34 10° WNW 18:48:09 21° SW 18:50:44 10° S daylight
01 Nov - 09:48:10 10° SSW 09:51:22 48° SE 09:54:35 10° ENE daylight
01 Nov - 11:25:49 10° WNW 11:28:13 18° NNW 11:30:37 10° NNE daylight
01 Nov - 16:19:29 10° NNW 16:22:02 20° NNE 16:24:34 10° E daylight
01 Nov - 17:55:40 10° WNW 17:58:49 41° SW 18:01:57 10° SSE daylight
02 Nov - 07:59:15 10° S 08:01:59 24° SE 08:04:44 10° ENE daylight
02 Nov - 09:35:38 10° W 09:38:34 28° NW 09:41:31 10° NNE daylight
02 Nov - 14:30:32 10° N 14:32:19 14° NNE 14:34:06 10° ENE daylight
02 Nov - 16:06:03 10° NW 16:09:22 85° SW 16:12:41 10° SE daylight
03 Nov - 07:11:06 10° SSE 07:12:38 13° SE 07:14:11 10° E daylight
03 Nov - 08:45:43 10° WSW 08:48:57 50° NW 08:52:12 10° NE daylight
03 Nov - 15:16:35 10° NW 15:19:49 48° NE 15:23:02 10° ESE daylight
03 Nov - 16:54:28 10° W 16:56:09 13° SW 16:57:51 10° SSW daylight
